Regional Weather Roundup
Issued by NWS

Home | Current Version | Previous Version | Text Only | Print | Product List | Glossary Off
Versions: 1 2 3 4 5 6 7 8 9 10 11 12 13 14 15 16 17 18 19 20 21 22 23 24 25 26 27

000
ASUS45 KCYS 291710
RWRWY

WYOMING REGIONAL WEATHER ROUNDUP
NATIONAL WEATHER SERVICE CHEYENNE WY
1100 AM MDT SUN MAY 29 2016

NOTE:  "FAIR" INDICATES FEW OR NO CLOUDS BELOW 12,000 FEET
WITH NO SIGNIFICANT WEATHER AND/OR OBSTRUCTIONS TO VISIBILITY.

WYZ001-291800-
YELLOWSTONE NATIONAL PARK

CITY           SKY/WX    TMP DP  RH WIND       PRES   REMARKS
LK YELLOWSTONE   N/A     48  26  42 MISG      30.25F
W YELLOWSTONE  NOT AVBL

$$
WYZ002>013-054>058-071-098>099-291800-
NORTHERN WYOMING

CITY           SKY/WX    TMP DP  RH WIND       PRES   REMARKS
JACKSON        MOSUNNY   54  34  47 CALM      30.20
CODY           FAIR      64  34  32 S3        30.09F
GREYBULL       FAIR      67  41  38 CALM      30.07F
WORLAND        FAIR      66  41  40 CALM      30.08F
SHERIDAN       FAIR      71  41  33 E7        30.06F
BUFFALO        FAIR      65  44  46 SE12      30.11F
GILLETTE       FAIR      66  45  46 VRB7      30.09F
HULETT         FAIR      70  41  35 W6        30.10S
NEWCASTLE      FAIR      68  39  34 S14G24    30.11S

$$
WYZ014>020-022>026-101>103-291800-
CENTRAL WYOMING

CITY           SKY/WX    TMP DP  RH WIND       PRES   REMARKS
BIG PINEY      FAIR      59  30  33 VRB6      30.24F
PINEDALE       FAIR      55  30  38 CALM      30.25F
DUBOIS         FAIR      59  25  27 NW14G28   30.19F
LANDER         FAIR      63  33  32 SE5       30.14F
RIVERTON       FAIR      64  29  26 VRB5      30.15F
CASPER         FAIR      64  38  38 SW8       30.14F
DOUGLAS          N/A    N/A N/A N/A MISG      30.13F

$$
WYZ021-027>030-104>119-291800-
SOUTHERN WYOMING

CITY           SKY/WX    TMP DP  RH WIND       PRES   REMARKS
EVANSTON       FAIR      62  36  37 VRB6      30.23S
KEMMERER         N/A     59  30  33 SE5       30.26S
FORT BRIDGER   SUNNY     61  34  36 E8        30.26F
ROCK SPRINGS   FAIR      59  32  36 SW7       30.24S
DIXON          FAIR      63  41  44 W3        30.25S
RAWLINS        FAIR      62  34  35 W8G18     30.23S
SARATOGA       FAIR      63  34  34 W13G24    30.24S
LARAMIE        FAIR      63  34  33 S9        30.23F
CHEYENNE       FAIR      69  36  29 S12       30.19S
TORRINGTON     PTSUNNY   67  47  48 CALM      30.11S
PINE BLUFFS    FAIR      70  43  37 S6        30.17S

$$




USA.gov is the U.S. government's official web portal to all federal, state and local government web resources and services.